Birchwood, AK

12:05 PM AKDT on March 30, 2017 (GMT -0800)
Birchwood

Weather History for PABV - May, 2014

Change the Weather History Date:

Friday, May 9, 2014

  Actual Average Record
Temperature  
Mean Temperature 53 °F -  
Max Temperature 64 °F 50 °F 66 °F (2005)
Min Temperature 42 °F 33 °F 30 °F (1999)
Degree Days  
Heating Degree Days 12    
Growing Degree Days 3 (Base 50)    
Moisture  
Dew Point 33 °F    
Average Humidity 45    
Maximum Humidity 71    
Minimum Humidity 28    
Precipitation  
Precipitation 0.00 in - - ()
Sea Level Pressure  
Sea Level Pressure 29.99 in    
Wind  
Wind Speed 5 mph (SW)    
Max Wind Speed 9 mph    
Max Gust Speed -    
Visibility 10 miles    
Events      
Averages and records for this station are not official NWS values.
T = Trace of Precipitation, MM = Missing Value Source: NWS Daily Summary

Daily Weather History Graph

Daily Weather History Graph

Search for Another Location

Airport or City:

Trip Planner

Search our weather history database for the weather conditions in past years. The results will help you decide how hot, cold, wet, or windy it might be!

Date:

Astronomy

May. 09, 2014 Rise Set
Actual Time 5:24 AM AKDT 10:26 PM AKDT
Civil Twilight 4:20 AM AKDT 11:31 PM AKDT
Nautical Twilight 2:26 AM AKDT 1:22 AM AKDT
Astronomical Twilight Sun does not rise Sun does not rise
Moon 4:06 PM AKDT (5/9) 4:05 AM AKDT (5/9)
Length of Visible Light 19h 11m
Length of Day
17h 01m
Waxing Gibbous, 75% of the Moon is Illuminated
May 9
Waxing Gibbous
May 14
Full
May 21
Last Quarter
May 28
New
Jun 5
First Quarter

Hourly Weather History & Observations

Time (AKDT) Temp. Windchill Dew Point Humidity Pressure Visibility Wind Dir Wind Speed Gust Speed Precip Events Conditions
12:16 AM 53.6 °F - 35.6 °F 51% 29.90 in 10.0 mi SSW 6.9 mph - N/A   Overcast
12:36 AM 53.6 °F - 35.6 °F 51% 29.90 in 10.0 mi SSW 4.6 mph - N/A   Overcast
12:56 AM 53.6 °F - 35.6 °F 51% 29.91 in 10.0 mi SSW 3.5 mph - N/A   Overcast
1:16 AM 53.6 °F - 33.8 °F 47% 29.91 in 10.0 mi SSW 4.6 mph - N/A   Overcast
1:36 AM 51.8 °F - 35.6 °F 54% 29.91 in 10.0 mi SSW 4.6 mph - N/A   Overcast
1:56 AM 50.0 °F - 35.6 °F 58% 29.92 in 10.0 mi SSW 5.8 mph - N/A   Scattered Clouds
2:16 AM 48.2 °F - 35.6 °F 62% 29.93 in 10.0 mi SSW 5.8 mph - N/A   Mostly Cloudy
2:36 AM 48.2 °F - 33.8 °F 58% 29.93 in 10.0 mi South 4.6 mph - N/A   Scattered Clouds
2:56 AM 46.4 °F - 35.6 °F 66% 29.93 in 10.0 mi Calm Calm - N/A   Partly Cloudy
3:16 AM 44.6 °F - 35.6 °F 71% 29.94 in 10.0 mi Calm Calm - N/A   Clear
3:36 AM 44.6 °F 41.4 °F 32.0 °F 61% 29.94 in 10.0 mi South 5.8 mph - N/A   Clear
3:56 AM 46.4 °F 41.9 °F 33.8 °F 62% 29.94 in 10.0 mi South 9.2 mph - N/A   Clear
4:16 AM 46.4 °F 43.5 °F 33.8 °F 62% 29.94 in 10.0 mi South 5.8 mph - N/A   Clear
4:36 AM 46.4 °F 44.3 °F 33.8 °F 62% 29.95 in 10.0 mi South 4.6 mph - N/A   Clear
4:56 AM 44.6 °F 43.1 °F 33.8 °F 66% 29.95 in 10.0 mi South 3.5 mph - N/A   Clear
5:16 AM 44.6 °F 43.1 °F 33.8 °F 66% 29.96 in 10.0 mi South 3.5 mph - N/A   Clear
5:36 AM 44.6 °F 41.4 °F 32.0 °F 61% 29.96 in 10.0 mi South 5.8 mph - N/A   Clear
5:56 AM 44.6 °F 40.7 °F 30.2 °F 57% 29.96 in 10.0 mi South 6.9 mph - N/A   Clear
6:16 AM 42.8 °F - 32.0 °F 66% 29.97 in 10.0 mi Calm Calm - N/A   Clear
6:36 AM 42.8 °F 40.1 °F 32.0 °F 66% 29.97 in 10.0 mi South 4.6 mph - N/A   Clear
6:56 AM 44.6 °F - 33.8 °F 66% 29.97 in 10.0 mi Calm Calm - N/A   Clear
7:16 AM 44.6 °F - 30.2 °F 57% 29.98 in 10.0 mi Calm Calm - N/A   Clear
7:36 AM 46.4 °F - 30.2 °F 53% 29.98 in 10.0 mi Calm Calm - N/A   Clear
7:56 AM 46.4 °F 45.2 °F 30.2 °F 53% 29.99 in 10.0 mi South 3.5 mph - N/A   Clear
8:16 AM 46.4 °F 44.3 °F 30.2 °F 53% 29.99 in 10.0 mi SSW 4.6 mph - N/A   Clear
8:36 AM 48.2 °F - 30.2 °F 50% 29.99 in 10.0 mi WSW 3.5 mph - N/A   Clear
8:56 AM 48.2 °F - 33.8 °F 58% 30.00 in 10.0 mi West 5.8 mph - N/A   Clear
9:16 AM 48.2 °F - 33.8 °F 58% 30.00 in 10.0 mi West 6.9 mph - N/A   Clear
9:36 AM 48.2 °F - 35.6 °F 62% 30.00 in 10.0 mi West 8.1 mph - N/A   Clear
9:56 AM 48.2 °F - 33.8 °F 58% 30.00 in 10.0 mi West 6.9 mph - N/A   Clear
10:16 AM 48.2 °F - 33.8 °F 58% 30.00 in 10.0 mi West 8.1 mph - N/A   Clear
10:36 AM 50.0 °F - 35.6 °F 58% 30.01 in 10.0 mi West 5.8 mph - N/A   Clear
10:56 AM 51.8 °F - 35.6 °F 54% 30.01 in 10.0 mi West 4.6 mph - N/A   Clear
11:16 AM 53.6 °F - 30.2 °F 41% 30.01 in 10.0 mi SW 5.8 mph - N/A   Clear
11:36 AM 55.4 °F - 30.2 °F 38% 30.01 in 10.0 mi WSW 5.8 mph - N/A   Clear
11:56 AM 55.4 °F - 30.2 °F 38% 30.02 in 5.0 mi WSW 5.8 mph - N/A   Clear
12:16 PM 57.2 °F - 32.0 °F 38% 30.02 in 10.0 mi WSW 3.5 mph - N/A   Clear
12:36 PM 57.2 °F - 33.8 °F 41% 30.02 in 10.0 mi SW 4.6 mph - N/A   Clear
12:56 PM 59.0 °F - 33.8 °F 39% 30.02 in 10.0 mi WSW 3.5 mph - N/A   Clear
1:16 PM 59.0 °F - 30.2 °F 34% 30.01 in 10.0 mi SW 5.8 mph - N/A   Clear
1:36 PM 60.8 °F - 30.2 °F 31% 30.01 in 10.0 mi SSW 3.5 mph - N/A   Partly Cloudy
1:56 PM 60.8 °F - 30.2 °F 31% 30.01 in 10.0 mi SW 3.5 mph - N/A   Clear
2:16 PM 60.8 °F - 32.0 °F 34% 30.00 in 10.0 mi WSW 4.6 mph - N/A   Clear
2:36 PM 62.6 °F - 32.0 °F 32% 30.00 in 10.0 mi SW 3.5 mph - N/A   Clear
2:56 PM 62.6 °F - 33.8 °F 34% 30.00 in 10.0 mi WSW 5.8 mph - N/A   Clear
3:16 PM 62.6 °F - 33.8 °F 34% 29.99 in 10.0 mi West 5.8 mph - N/A   Clear
3:36 PM 62.6 °F - 33.8 °F 34% 29.99 in 10.0 mi West 6.9 mph - N/A   Clear
3:56 PM 62.6 °F - 33.8 °F 34% 29.99 in 10.0 mi West 6.9 mph - N/A   Clear
4:16 PM 62.6 °F - 33.8 °F 34% 29.99 in 10.0 mi West 8.1 mph - N/A   Clear
4:36 PM 64.4 °F - 32.0 °F 30% 29.99 in 10.0 mi West 6.9 mph - N/A   Clear
4:56 PM 64.4 °F - 30.2 °F 28% 29.99 in 10.0 mi WSW 5.8 mph - N/A   Clear
5:16 PM 64.4 °F - 30.2 °F 28% 29.99 in 10.0 mi West 9.2 mph - N/A   Clear
5:36 PM 64.4 °F - 30.2 °F 28% 29.99 in 10.0 mi West 5.8 mph - N/A   Clear
5:56 PM 64.4 °F - 30.2 °F 28% 30.00 in 10.0 mi West 6.9 mph - N/A   Clear
6:16 PM 64.4 °F - 33.8 °F 32% 30.00 in 10.0 mi West 6.9 mph - N/A   Clear
6:36 PM 64.4 °F - 33.8 °F 32% 30.00 in 10.0 mi West 8.1 mph - N/A   Clear
6:56 PM 62.6 °F - 35.6 °F 37% 30.01 in 10.0 mi West 5.8 mph - N/A   Scattered Clouds
7:16 PM 62.6 °F - 37.4 °F 39% 30.01 in 10.0 mi WNW 5.8 mph - N/A   Overcast
7:36 PM 62.6 °F - 35.6 °F 37% 30.01 in 10.0 mi WNW 5.8 mph - N/A   Mostly Cloudy
7:56 PM 62.6 °F - 33.8 °F 34% 30.02 in 10.0 mi NW 5.8 mph - N/A   Mostly Cloudy
8:16 PM 62.6 °F - 33.8 °F 34% 30.02 in 10.0 mi WNW 5.8 mph - N/A   Clear
8:36 PM 62.6 °F - 35.6 °F 37% 30.03 in 10.0 mi NW 4.6 mph - N/A   Partly Cloudy
8:56 PM 60.8 °F - 35.6 °F 39% 30.03 in 10.0 mi West 3.5 mph - N/A   Partly Cloudy
9:16 PM 60.8 °F - 35.6 °F 39% 30.04 in 10.0 mi WSW 3.5 mph - N/A   Clear
9:36 PM 60.8 °F - 33.8 °F 36% 30.04 in 10.0 mi SSW 4.6 mph - N/A   Clear
9:56 PM 60.8 °F - 30.2 °F 31% 30.05 in 10.0 mi Calm Calm - N/A   Clear
10:16 PM 60.8 °F - 28.4 °F 29% 30.06 in 10.0 mi SSW 3.5 mph - N/A   Clear
10:36 PM 59.0 °F - 28.4 °F 31% 30.07 in 10.0 mi WSW 4.6 mph - N/A   Clear
10:56 PM 59.0 °F - 26.6 °F 29% 30.07 in 10.0 mi SSE 4.6 mph - N/A   Clear
11:16 PM 57.2 °F - 26.6 °F 31% 30.08 in 10.0 mi SSE 4.6 mph - N/A   Clear
11:36 PM 57.2 °F - 26.6 °F 31% 30.09 in 10.0 mi South 6.9 mph - N/A   Clear
11:56 PM 55.4 °F - 28.4 °F 36% 30.10 in 10.0 mi SSW 5.8 mph - N/A   Clear